[[{"header":{"parameterUnit":"m.s-1","parameterCategory":1,"la1":30.2991,"la2":30.254,"lo1":-89.0895,"lo2":-89.0444,"dy":0.0017,"dx":0.0017,"nx":28,"ny":28,"refTime":"2023-07-23T21:00:00:Z","depth":0,"parameterNumber":2,"parameterNumberName":"U-component_of_WINDS"},"data":[0,0,0,0,0,0,0,0,0,0,0,0,0,0,0,0,0,0,0,0,0,0,0,0,0,0,0,0,0,0,0,0,0,0,0,0,0,0,0,0,0,0,0,0,0,0,0,0,0,0,0,0,0,0,0,0,0,0,1.3772,1.3772,0,1.38,1.3801,1.3801,1.3791,1.3791,1.379,1.379,1.3819,1.382,1.3821,0,0,0,0,0,0,0,0,0,0,0,0,0,1.3707,1.3708,1.3772,1.3772,1.3772,1.38,1.3801,1.3801,1.3792,1.3791,1.379,1.3789,1.3818,1.382,1.3821,0,0,0,0,0,0,0,0,0,0,0,0,0,1.3735,1.3708,1.3772,1.3771,1.3771,1.38,1.3801,1.3801,1.3792,1.3791,1.379,1.3789,1.3818,1.382,1.3822,1.3853,0,0,1.3828,1.3829,0,0,0,0,0,0,0,0,1.3734,1.3738,1.3771,1.3771,1.3771,1.3791,1.3788,1.3819,1.3792,1.3784,1.379,1.3789,1.381,1.3813,1.382,1.3854,1.3855,1.3828,1.3829,1.383,1.3831,0,0,0,0,0,0,0,1.3732,1.3736,1.3783,1.3771,1.3772,1.3769,1.3772,1.3794,1.3802,1.3785,1.3784,1.3788,1.381,1.3818,1.3821,1.3856,1.3828,1.383,1.3831,1.3832,1.3914,1.3915,0,0,0,0,0,0,1.373,1.3735,1.3782,1.3784,1.375,1.3771,1.3774,1.3786,1.3802,1.3803,1.3788,1.3787,1.3815,1.3818,1.3822,1.3857,1.383,1.3832,1.3833,1.3913,1.3914,1.3915,0,0,0,0,0,0,1.3728,1.3734,1.3781,1.3759,1.3765,1.3773,1.3786,1.3787,1.3795,1.3805,1.3806,1.3795,1.3815,1.3819,1.3844,1.3858,1.3833,1.3835,1.3912,1.3913,1.3914,1.393,0,0,0,0,0,0,1.3726,1.3734,1.3746,1.376,1.3766,1.3804,1.3787,1.3788,1.3799,1.3797,1.3811,1.3813,1.3814,1.3842,1.3846,1.3861,1.3836,1.391,1.3912,1.3914,1.3928,1.3932,1.3935,0,0,0,0,0,1.3724,1.375,1.3747,1.3753,1.3782,1.3805,1.3809,1.381,1.38,1.3812,1.3818,1.3812,1.3856,1.3844,1.385,1.3865,1.391,1.3912,1.3914,1.3927,1.3931,1.3935,0,0,0,0,0,0,1.3739,1.3752,1.3748,1.3779,1.3791,1.3803,1.3819,1.3815,1.383,1.3828,1.3828,1.3832,1.3857,1.3864,1.385,1.3894,1.3881,1.3885,1.3889,1.3893,1.3897,1.3894,1.3838,0,0,0,0,0,1.3745,1.3763,1.3773,1.38,1.3806,1.3811,1.3821,1.3821,1.3833,1.3838,1.3845,1.3857,1.3873,1.3884,1.3899,1.3929,1.3931,1.3942,1.3945,1.3948,1.3951,1.3965,1.3969,1.3922,1.3922,1.3922,0,0,1.3759,1.3769,1.378,1.3803,1.3812,1.3829,1.3815,1.3835,1.3847,1.3841,1.3865,1.3871,1.3883,1.3911,1.3923,1.3917,1.3964,1.3951,1.3953,1.3954,1.3967,1.3972,1.3976,1.3924,1.3923,1.3923,0,0,1.3794,1.3803,1.3825,1.3834,1.3847,1.385,1.3855,1.3868,1.3871,1.3895,1.389,1.3905,1.3933,1.3942,1.395,1.3985,1.398,1.399,1.4007,1.402,1.4024,1.4027,1.4038,1.4042,1.3993,1.3993,1.3993,0,1.381,1.3836,1.3837,1.3856,1.3865,1.3859,1.388,1.3889,1.3907,1.3913,1.3906,1.3939,1.3948,1.3976,1.3984,1.3992,1.3996,1.3988,1.4023,1.4027,1.403,1.404,1.4044,1.3994,1.3994,1.3993,1.3993,0,1.3853,1.3872,1.3888,1.3904,1.3915,1.3935,1.3938,1.3949,1.3947,1.3951,1.3974,1.3984,1.4,1.4007,1.4006,1.4034,1.403,1.4023,1.401,1.4035,1.4044,1.4048,1.3995,1.3995,1.3994,1.3994,0,0,1.3899,1.3913,1.3919,1.3925,1.3939,1.3952,1.3971,1.3987,1.3995,1.4008,1.4022,1.4046,1.4039,1.4048,1.4048,1.406,1.4084,1.4051,1.4051,1.4056,1.4113,1.4117,1.4122,1.4081,1.4082,1.4083,1.4112,0,1.3932,1.3966,1.3966,1.3996,1.4012,1.4006,1.4022,1.4031,1.4035,1.4048,1.4051,1.4067,1.4058,1.4063,1.4075,1.4079,1.4096,1.4077,1.4094,1.4094,1.409,1.4127,1.4132,1.4159,1.4116,1.4116,1.4117,0,1.3977,1.3989,1.4021,1.4029,1.4036,1.4051,1.4063,1.4077,1.4086,1.4088,1.4097,1.4094,1.4112,1.4099,1.4123,1.411,1.4117,1.412,1.4121,1.4122,1.4106,1.4127,1.4168,1.4171,1.4123,1.4122,1.4122,0,1.4004,1.4028,1.405,1.4056,1.4067,1.4077,1.4082,1.4091,1.4099,1.4111,1.4116,1.4129,1.4136,1.4147,1.4147,1.4138,1.417,1.4158,1.4171,1.4171,1.4178,1.4177,1.4218,1.4184,1.4184,1.4184,1.4184,0,1.4041,1.406,1.4062,1.4075,1.4095,1.4095,1.4115,1.4119,1.4127,1.414,1.4136,1.4148,1.4149,1.4161,1.4161,1.418,1.4184,1.4184,1.4184,1.4184,1.4184,1.4188,1.4185,1.4185,1.4185,1.4185,1.4185,0,1.4075,1.4077,1.4099,1.4107,1.411,1.4124,1.4131,1.4143,1.4145,1.4161,1.4165,1.4169,1.4183,1.4185,1.4201,1.4201,1.4223,1.4222,1.422,1.4219,1.4232,1.423,1.4276,1.4281,1.4245,1.4246,1.4246,0,1.4098,1.4112,1.4121,1.4129,1.4134,1.4148,1.4156,1.4156,1.4164,1.4175,1.4185,1.4198,1.4209,1.4231,1.4235,1.4247,1.4245,1.426,1.4247,1.4246,1.4243,1.4242,1.4242,1.4263,1.4263,1.4263,1.4264,0,1.4137,1.4137,1.4149,1.4161,1.417,1.418,1.4188,1.4195,1.4196,1.4205,1.4219,1.4227,1.4243,1.4256,1.4267,1.4272,1.4267,1.4268,1.4271,1.4271,1.4268,1.4268,1.4225,1.4267,1.4266,1.4266,1.4266,1.4266,1.4165,1.4177,1.4184,1.4197,1.4203,1.4211,1.4221,1.4224,1.4236,1.4248,1.4248,1.4262,1.427,1.4284,1.429,1.4301,1.4295,1.4301,1.4302,1.4303,1.4303,1.4267,1.4303,1.4303,1.4303,1.4303,1.4303,0,1.4203,1.4207,1.4219,1.423,1.424,1.4234,1.4243,1.4251,1.4264,1.4272,1.4281,1.4296,1.4308,1.4312,1.4323,1.4331,1.4329,1.4334,1.4333,1.4333,1.4308,1.4303,1.4335,1.4335,1.4335,1.4335,1.4335,1.4335,1.4224,1.4242,1.4242,1.4263,1.4267,1.4281,1.4286,1.4292,1.4298,1.4314,1.4324,1.4326,1.4332,1.4343,1.4353,1.4354,1.4357,1.4363,1.4363,1.4339,1.4335,1.4332,1.4328,1.4364,1.4364,1.4386,1.4387,1.4387]},{"header":{"parameterUnit":"m.s-1","parameterCategory":1,"la1":30.2991,"la2":30.254,"lo1":-89.0895,"lo2":-89.0444,"dy":0.0017,"dx":0.0017,"nx":28,"ny":28,"refTime":"2023-07-23T21:00:00:Z","depth":0,"parameterNumber":3,"parameterNumberName":"V-component_of_WINDS"},"data":[0,0,0,0,0,0,0,0,0,0,0,0,0,0,0,0,0,0,0,0,0,0,0,0,0,0,0,0,0,0,0,0,0,0,0,0,0,0,0,0,0,0,0,0,0,0,0,0,0,0,0,0,0,0,0,0,0,0,-0.5918,-0.5918,0,-0.5893,-0.5893,-0.5892,-0.5895,-0.5896,-0.5896,-0.5896,-0.5868,-0.5867,-0.5866,0,0,0,0,0,0,0,0,0,0,0,0,0,-0.5966,-0.5965,-0.5918,-0.5918,-0.5917,-0.5893,-0.5893,-0.5892,-0.5895,-0.5896,-0.5896,-0.5897,-0.5868,-0.5867,-0.5866,0,0,0,0,0,0,0,0,0,0,0,0,0,-0.5943,-0.5965,-0.5918,-0.5916,-0.5916,-0.5893,-0.5893,-0.5892,-0.5895,-0.5896,-0.5896,-0.5897,-0.5869,-0.5867,-0.5865,-0.5843,0,0,-0.586,-0.5859,0,0,0,0,0,0,0,0,-0.5945,-0.5942,-0.5917,-0.5916,-0.5916,-0.5898,-0.5899,-0.5876,-0.5895,-0.5903,-0.5896,-0.5897,-0.5877,-0.5875,-0.5869,-0.5841,-0.584,-0.586,-0.5859,-0.5858,-0.5858,0,0,0,0,0,0,0,-0.5946,-0.5943,-0.5908,-0.5916,-0.5916,-0.5916,-0.5913,-0.5895,-0.5887,-0.5902,-0.5902,-0.5899,-0.5877,-0.587,-0.5868,-0.584,-0.586,-0.5859,-0.5857,-0.5857,-0.5793,-0.5792,0,0,0,0,0,0,-0.5949,-0.5944,-0.5909,-0.5907,-0.5932,-0.5914,-0.5911,-0.5903,-0.5887,-0.5885,-0.5899,-0.59,-0.5873,-0.587,-0.5867,-0.5839,-0.5858,-0.5857,-0.5856,-0.5793,-0.5793,-0.5792,0,0,0,0,0,0,-0.595,-0.5946,-0.591,-0.5926,-0.5921,-0.5913,-0.5903,-0.5902,-0.5895,-0.5885,-0.5883,-0.5894,-0.5873,-0.5869,-0.5849,-0.5838,-0.5856,-0.5854,-0.5794,-0.5793,-0.5792,-0.5784,0,0,0,0,0,0,-0.5951,-0.5946,-0.5938,-0.5926,-0.592,-0.5893,-0.5903,-0.5901,-0.5893,-0.5894,-0.5879,-0.5877,-0.5873,-0.5852,-0.5847,-0.5836,-0.5853,-0.5795,-0.5794,-0.5793,-0.5785,-0.5783,-0.5781,0,0,0,0,0,-0.5953,-0.5935,-0.5937,-0.5933,-0.591,-0.5892,-0.5889,-0.5886,-0.5892,-0.5883,-0.5876,-0.5878,-0.5841,-0.5849,-0.5845,-0.5833,-0.5796,-0.5794,-0.5793,-0.5786,-0.5783,-0.5781,0,0,0,0,0,0,-0.5945,-0.5934,-0.5935,-0.5914,-0.5904,-0.5893,-0.5881,-0.5883,-0.587,-0.5871,-0.5867,-0.5863,-0.5843,-0.5836,-0.5846,-0.5811,-0.5819,-0.5816,-0.5816,-0.5813,-0.5811,-0.5812,-0.5852,0,0,0,0,0,-0.5941,-0.5929,-0.5919,-0.5901,-0.5896,-0.589,-0.5882,-0.588,-0.5869,-0.5865,-0.5857,-0.5845,-0.5831,-0.5822,-0.5808,-0.5785,-0.5781,-0.5774,-0.5772,-0.5771,-0.5768,-0.5755,-0.5752,-0.5787,-0.5787,-0.5787,0,0,-0.5932,-0.5925,-0.5917,-0.5899,-0.5891,-0.5878,-0.5886,-0.5871,-0.5861,-0.5862,-0.5843,-0.5836,-0.5824,-0.5802,-0.5792,-0.5795,-0.5758,-0.5769,-0.5767,-0.5766,-0.5753,-0.575,-0.5747,-0.5786,-0.5786,-0.5786,0,0,-0.5909,-0.5902,-0.5887,-0.5879,-0.5868,-0.5864,-0.586,-0.5849,-0.5845,-0.5826,-0.5827,-0.5814,-0.579,-0.5781,-0.5773,-0.5748,-0.5748,-0.5743,-0.5732,-0.5719,-0.5717,-0.5714,-0.5705,-0.5701,-0.5741,-0.5741,-0.5741,0,-0.5899,-0.5879,-0.5878,-0.5863,-0.5855,-0.5858,-0.5842,-0.5834,-0.5818,-0.5813,-0.5818,-0.5788,-0.5779,-0.5755,-0.5749,-0.5743,-0.5738,-0.5744,-0.5717,-0.5715,-0.5712,-0.5703,-0.57,-0.5741,-0.5741,-0.5741,-0.5741,0,-0.5868,-0.5854,-0.5842,-0.5829,-0.582,-0.5804,-0.58,-0.5791,-0.5791,-0.5786,-0.5766,-0.5757,-0.5741,-0.5736,-0.5735,-0.5712,-0.5714,-0.5718,-0.5726,-0.5709,-0.57,-0.5697,-0.574,-0.574,-0.574,-0.574,0,0,-0.5837,-0.5824,-0.582,-0.5814,-0.5802,-0.5791,-0.5776,-0.5762,-0.5754,-0.5744,-0.573,-0.5711,-0.5715,-0.5706,-0.5704,-0.5693,-0.5674,-0.5698,-0.5698,-0.5694,-0.5647,-0.5644,-0.564,-0.5675,-0.5674,-0.5674,-0.5648,0,-0.5812,-0.5786,-0.5785,-0.5761,-0.5748,-0.5751,-0.5738,-0.5729,-0.5725,-0.5713,-0.5708,-0.5694,-0.57,-0.5695,-0.5685,-0.5678,-0.5664,-0.568,-0.5661,-0.5661,-0.5664,-0.5636,-0.5632,-0.5608,-0.5645,-0.5645,-0.5644,0,-0.578,-0.5769,-0.5744,-0.5735,-0.573,-0.5718,-0.5706,-0.5695,-0.5685,-0.5682,-0.5673,-0.5673,-0.5657,-0.5667,-0.5644,-0.5655,-0.5648,-0.5644,-0.5643,-0.564,-0.5651,-0.5631,-0.5601,-0.5597,-0.5639,-0.5639,-0.564,0,-0.5759,-0.5739,-0.5722,-0.5717,-0.5706,-0.5698,-0.5692,-0.5683,-0.5675,-0.5664,-0.5659,-0.5646,-0.5638,-0.5628,-0.5624,-0.5632,-0.5602,-0.5611,-0.5599,-0.5599,-0.5591,-0.5592,-0.5558,-0.5588,-0.5588,-0.5588,-0.5588,0,-0.5731,-0.5716,-0.5713,-0.5702,-0.5685,-0.5684,-0.5666,-0.5662,-0.5654,-0.5642,-0.5643,-0.5632,-0.5628,-0.5616,-0.5613,-0.5595,-0.5591,-0.5588,-0.5588,-0.5588,-0.5588,-0.5582,-0.5583,-0.5587,-0.5587,-0.5587,-0.5588,0,-0.5705,-0.5703,-0.5684,-0.5676,-0.5674,-0.5661,-0.5654,-0.5643,-0.564,-0.5624,-0.5621,-0.5615,-0.5601,-0.5597,-0.5579,-0.5577,-0.5555,-0.5556,-0.5559,-0.5559,-0.5546,-0.5547,-0.5507,-0.5501,-0.5535,-0.5535,-0.5535,0,-0.5687,-0.5675,-0.5666,-0.5659,-0.5654,-0.5642,-0.5634,-0.5633,-0.5625,-0.5613,-0.5604,-0.559,-0.5579,-0.5556,-0.555,-0.5536,-0.5537,-0.5524,-0.5534,-0.5535,-0.5536,-0.5536,-0.5535,-0.5521,-0.5521,-0.552,-0.552,0,-0.5655,-0.5654,-0.5644,-0.5633,-0.5624,-0.5615,-0.5606,-0.56,-0.5598,-0.5588,-0.5574,-0.5566,-0.5549,-0.5535,-0.5522,-0.5516,-0.5517,-0.5517,-0.5513,-0.5513,-0.5514,-0.5513,-0.5553,-0.5518,-0.5518,-0.5518,-0.5518,-0.5518,-0.5631,-0.5621,-0.5614,-0.5602,-0.5596,-0.5588,-0.5578,-0.5574,-0.5563,-0.5549,-0.5549,-0.5534,-0.5525,-0.5508,-0.5501,-0.5489,-0.5492,-0.5487,-0.5486,-0.5484,-0.5483,-0.5518,-0.5486,-0.5486,-0.5487,-0.5487,-0.5487,0,-0.5599,-0.5594,-0.5584,-0.5572,-0.5563,-0.5567,-0.5558,-0.555,-0.5537,-0.5529,-0.5518,-0.5502,-0.5489,-0.5483,-0.5469,-0.5461,-0.5461,-0.5457,-0.5457,-0.5456,-0.5481,-0.5485,-0.5457,-0.5457,-0.5457,-0.5457,-0.5457,-0.5457,-0.558,-0.5564,-0.5563,-0.5543,-0.5539,-0.5525,-0.5519,-0.5512,-0.5506,-0.5488,-0.5478,-0.5474,-0.5467,-0.5453,-0.5441,-0.544,-0.5434,-0.543,-0.5429,-0.5451,-0.5454,-0.5457,-0.5461,-0.5429,-0.5429,-0.5405,-0.5405,-0.5405]}]]